Regional Weather Roundup
Issued by NWS

Home | Current Version | Previous Version | Text Only | Print | Product List | Glossary Off
Versions: 1 2 3 4 5 6 7 8 9 10 11 12 13 14 15 16 17 18 19 20 21 22 23 24 25 26 27 28 29 30 31 32 33 34 35 36 37 38 39 40 41 42 43 44 45 46 47 48 49 50

000
ASUS43 KIND 052359
RWRIN

WEATHER ROUNDUP FOR INDIANA
NATIONAL WEATHER SERVICE INDIANAPOLIS IN
700 PM EST FRI FEB 05 2016

NOTE: "FAIR" INDICATES FEW OR NO CLOUDS BELOW 12,000 FEET WITH NO
SIGNIFICANT WEATHER AND/OR OBSTRUCTIONS TO VISIBILITY.

* - STATION DOES NOT REPORT WEATHER SUCH AS PRECIPITATION OR FOG.

+ - STATION NOT QUALITY CONTROLLED BY THE NATIONAL WEATHER SERVICE.
    USE DATA WITH CAUTION...ESPECIALLY DEWPOINT AND RELATIVE
    HUMIDITY OBSERVATIONS.

INZ001>003-010>013-019-020-060100-
NORTHWEST INDIANA

CITY           SKY/WX    TMP DP  RH WIND       PRES   REMARKS
GARY /AIRPORT/ CLOUDY    32  21  64 W8        30.38R WCI  25
RENSSELAER +   CLOUDY    30  23  74 W5        30.38S WCI  25

$$

LMZ046-743>745-060100-
SOUTHERN LAKE MICHIGAN

STATION/POSITION TIME  TEMP    WIND        PRES    WAVE
                       AIR SEA DIR/SP/G            HT
                 (UTC) (F)     (DEG/KT/KT) (MB)    (FT)
BURNS HARBOR     2300   30     300/  2/  3 1028.8R
MICHIGAN CITY    2300   30     320/  5/  6   N/A

$$

INZ004-005-014>016-021>024-060100-
NORTH CENTRAL INDIANA

CITY           SKY/WX    TMP DP  RH WIND       PRES   REMARKS
ELKHART          N/A     30  25  80 NW7       30.36R WCI  23
GOSHEN         CLOUDY    30  25  81 NW8       30.34R WCI  22
6HR MIN TEMP:  30; 6HR MAX TEMP:  34; 6HR PCP: TRACE;

PERU/GRISSOM   CLOUDY    29  24  82 W6        30.35R WCI  23
6HR MIN TEMP:  29; 6HR MAX TEMP:  33;

SOUTH BEND     CLOUDY    28  23  81 NW7       30.36R WCI  21
6HR MIN TEMP:  28; 6HR MAX TEMP:  33; 6HR PCP:  0.01;


$$

INZ006>009-017-018-025>027-060100-
NORTHEAST INDIANA

CITY           SKY/WX    TMP DP  RH WIND       PRES   REMARKS
ANGOLA *+      CLOUDY    30  27  86 W6        30.31R WCI  24
FORT WAYNE     CLOUDY    31  23  72 W10       30.35R WCI  22
6HR MIN TEMP:  31; 6HR MAX TEMP:  37;


$$

INZ028-029-035-036-043>045-051>053-060100-
WEST CENTRAL INDIANA

CITY           SKY/WX    TMP DP  RH WIND       PRES   REMARKS
GREENCASTLE +  CLEAR     30  19  64 CALM      30.39R
LAFAYETTE      PTCLDY    27  21  78 W7        30.39S WCI  19
6HR MIN TEMP:  27; 6HR MAX TEMP:  32;

TERRE HAUTE    CLEAR     29  22  75 NW8       30.40R WCI  21
6HR MIN TEMP:  29; 6HR MAX TEMP:  36;


$$

INZ030>032-037>040-046>048-054>057-064-065-060100-
CENTRAL INDIANA

CITY           SKY/WX    TMP DP  RH WIND       PRES   REMARKS
COLUMBUS       CLEAR     36  25  64 W8        30.35R
GREENWOOD *+   CLEAR     34  27  75 NW9       30.37R WCI  26
INDIANAPOLIS   PTCLDY    29  23  78 NW9       30.36R WCI  20
6HR MIN TEMP:  29; 6HR MAX TEMP:  41;

-EAGLE CREEK   CLEAR     30  24  78 NW9       30.37R WCI  22
6HR MIN TEMP:  30; 6HR MAX TEMP:  40;

KOKOMO *+      PTCLDY    30  21  69 W9        30.37R WCI  22
6HR MIN TEMP:  30; 6HR MAX TEMP:  36;

MT COMFORT *+  PTCLDY    30  25  80 N9        30.37R WCI  22
SHELBYVILLE    PTCLDY    34  25  69 NW8       30.35R WCI  27
6HR MIN TEMP:  34; 6HR MAX TEMP:  44;


$$

INZ033-034-041-042-049-050-058-059-060100-
EAST CENTRAL INDIANA

CITY           SKY/WX    TMP DP  RH WIND       PRES   REMARKS
MUNCIE         CLOUDY    32  23  69 NW8       30.36R WCI  25
6HR MIN TEMP:  32; 6HR MAX TEMP:  41;


$$

INZ060-061-067>069-081>083-085>088-060100-
SOUTHWEST INDIANA

CITY           SKY/WX    TMP DP  RH WIND       PRES   REMARKS
EVANSVILLE     CLOUDY    43  22  43 CALM      30.39S
6HR MIN TEMP:  43; 6HR MAX TEMP:  49;

HUNTINGBURG *+ CLOUDY    36  23  60 W6        30.38S
6HR MIN TEMP:  36; 6HR MAX TEMP:  46;


$$

INZ062-063-066-070>080-084-089>092-060100-
SOUTH CENTRAL AND SOUTHEAST INDIANA

CITY           SKY/WX    TMP DP  RH WIND       PRES   REMARKS
BLOOMINGTON    CLEAR     33  25  72 NW6       30.37R WCI  28
6HR MIN TEMP:  33; 6HR MAX TEMP:  42;

MADISON *+     CLEAR     36  21  55 S3        30.37S
SEYMOUR +      PTCLDY    37  23  56 W7        30.36R

$$




USA.gov is the U.S. government's official web portal to all federal, state and local government web resources and services.